[[{"header":{"parameterUnit":"m.s-1","parameterCategory":1,"la1":30.2991,"la2":30.254,"lo1":-89.0895,"lo2":-89.0444,"dy":0.0017,"dx":0.0017,"nx":28,"ny":28,"refTime":"2025-07-29T03:00:00:Z","depth":0,"parameterNumber":2,"parameterNumberName":"U-component_of_WINDS"},"data":[0,0,0,0,0,0,0,0,0,0,0,0,0,0,0,0,0,0,0,0,0,0,0,0,0,0,0,0,0,0,0,0,0,0,0,0,0,0,0,0,0,0,0,0,0,0,0,0,0,0,0,0,0,0,0,0,0,0,2.4686,2.4686,0,2.4667,2.4666,2.4666,2.4595,2.4593,2.4592,2.459,2.4571,2.4572,2.4573,0,0,0,0,0,0,0,0,0,0,0,0,0,2.4664,2.4665,2.4686,2.4686,2.4686,2.4667,2.4666,2.4666,2.4595,2.4593,2.4591,2.4589,2.4571,2.4572,2.4573,0,0,0,0,0,0,0,0,0,0,0,0,0,2.4662,2.4665,2.4686,2.4648,2.4644,2.4667,2.4666,2.4666,2.4596,2.4593,2.4591,2.4589,2.457,2.4572,2.4573,2.4631,0,0,2.4578,2.4578,0,0,0,0,0,0,0,0,2.4662,2.4663,2.4654,2.4651,2.4647,2.4631,2.4651,2.4654,2.4596,2.4614,2.459,2.4587,2.4593,2.4592,2.4594,2.463,2.4629,2.4578,2.4579,2.4579,2.458,0,0,0,0,0,0,0,2.4662,2.4663,2.4678,2.4654,2.4649,2.4632,2.4629,2.4652,2.4617,2.4612,2.4607,2.4606,2.459,2.4593,2.4593,2.4629,2.4578,2.4579,2.458,2.4581,2.4713,2.4716,0,0,0,0,0,0,2.4668,2.4664,2.4679,2.4678,2.4649,2.4635,2.4631,2.4638,2.4617,2.4611,2.4608,2.4603,2.4591,2.4591,2.4592,2.4659,2.4579,2.4581,2.4582,2.4711,2.4714,2.4717,0,0,0,0,0,0,2.4668,2.467,2.468,2.4669,2.4669,2.4638,2.4646,2.4639,2.4641,2.4614,2.4607,2.4617,2.4589,2.459,2.4622,2.4658,2.4581,2.4583,2.4707,2.4712,2.4715,2.4794,0,0,0,0,0,0,2.4667,2.467,2.4691,2.467,2.467,2.471,2.4648,2.4641,2.4644,2.4637,2.462,2.4615,2.4588,2.462,2.4624,2.4658,2.4584,2.4704,2.4709,2.4714,2.4788,2.48,2.481,0,0,0,0,0,2.4667,2.4714,2.4693,2.4695,2.4696,2.4712,2.4712,2.468,2.4647,2.4669,2.4651,2.4615,2.4653,2.4624,2.4627,2.4663,2.4702,2.4708,2.4714,2.4783,2.4798,2.481,0,0,0,0,0,0,2.4739,2.471,2.4686,2.4728,2.4723,2.47,2.4726,2.4696,2.47,2.4693,2.4653,2.465,2.4688,2.4679,2.4647,2.4719,2.4672,2.4679,2.4723,2.4737,2.4748,2.475,2.4585,0,0,0,0,0,2.476,2.4775,2.4749,2.4789,2.4788,2.4758,2.4763,2.4739,2.4732,2.473,2.4714,2.4709,2.472,2.4728,2.4736,2.4786,2.4782,2.4813,2.4824,2.4833,2.484,2.4867,2.488,2.4736,2.4736,2.4736,0,0,2.4803,2.479,2.4802,2.4803,2.4796,2.4814,2.4756,2.4776,2.4789,2.4733,2.4762,2.4751,2.4743,2.4785,2.4803,2.4778,2.4879,2.4841,2.4848,2.485,2.4874,2.4888,2.49,2.474,2.4739,2.4739,0,0,2.4891,2.4882,2.4915,2.4909,2.49,2.488,2.4888,2.487,2.486,2.4889,2.4848,2.4863,2.4882,2.4878,2.4879,2.4968,2.4936,2.4972,2.503,2.5057,2.5069,2.5079,2.5111,2.5123,2.4978,2.4979,2.4979,0,2.4946,2.497,2.4935,2.4959,2.4961,2.4911,2.4945,2.4941,2.4936,2.4939,2.4912,2.4936,2.4927,2.4968,2.499,2.4992,2.5,2.4973,2.507,2.5079,2.5088,2.5119,2.5131,2.4983,2.4983,2.4982,2.4982,0,2.5039,2.5057,2.5084,2.508,2.5086,2.5114,2.5084,2.5094,2.507,2.5053,2.5085,2.5072,2.5078,2.5086,2.5062,2.5124,2.5109,2.5077,2.5029,2.5107,2.5135,2.5147,2.499,2.4988,2.4987,2.4985,0,0,2.5171,2.5148,2.5159,2.5157,2.5144,2.5157,2.5184,2.519,2.52,2.5198,2.522,2.5239,2.5209,2.521,2.5186,2.5209,2.5282,2.5174,2.5173,2.5195,2.5351,2.5376,2.539,2.5261,2.5263,2.5264,2.5352,0,2.5255,2.5299,2.5269,2.5319,2.5335,2.5289,2.5313,2.5308,2.5293,2.5306,2.529,2.5304,2.5263,2.5263,2.5285,2.5269,2.5313,2.5262,2.5281,2.5283,2.5285,2.5404,2.543,2.5513,2.5363,2.5364,2.5366,0,2.5358,2.5362,2.5413,2.5399,2.5404,2.5426,2.543,2.5442,2.5436,2.5424,2.5426,2.5396,2.5423,2.5376,2.5412,2.5378,2.5384,2.5378,2.538,2.5381,2.5329,2.5409,2.5539,2.5552,2.5383,2.5381,2.538,0,2.5451,2.5468,2.5501,2.5501,2.5485,2.5501,2.5495,2.5487,2.5493,2.5496,2.55,2.5507,2.5511,2.5517,2.549,2.5458,2.553,2.548,2.5521,2.5522,2.5538,2.5538,2.5672,2.5542,2.5542,2.5542,2.5542,0,2.5548,2.5581,2.5543,2.5563,2.56,2.5566,2.5603,2.5592,2.5586,2.5604,2.5564,2.5582,2.5546,2.556,2.5539,2.5573,2.5575,2.5567,2.5561,2.557,2.5572,2.5574,2.5568,2.5545,2.5544,2.5544,2.5543,0,2.5657,2.5632,2.5666,2.5648,2.5644,2.5672,2.5657,2.5676,2.5659,2.5683,2.5686,2.5661,2.5676,2.565,2.5662,2.5648,2.5695,2.568,2.5697,2.5693,2.5736,2.5732,2.5876,2.5894,2.5753,2.5754,2.5755,0,2.572,2.5745,2.573,2.574,2.5736,2.5752,2.5758,2.5726,2.5734,2.5731,2.575,2.5762,2.577,2.5797,2.578,2.5789,2.5774,2.5824,2.5775,2.5785,2.5776,2.5775,2.5778,2.5834,2.5836,2.5837,2.5838,0,2.5836,2.5824,2.5834,2.5841,2.585,2.5854,2.5855,2.5865,2.5831,2.5843,2.5858,2.5864,2.5877,2.589,2.5895,2.5889,2.5859,2.5854,2.5864,2.5874,2.5883,2.588,2.5725,2.5851,2.585,2.5849,2.5848,2.5847,2.5925,2.5945,2.5939,2.5952,2.595,2.5952,2.5969,2.5956,2.5968,2.5976,2.5956,2.5977,2.5972,2.5976,2.5974,2.599,2.5968,2.5982,2.5986,2.599,2.5997,2.5881,2.5991,2.599,2.599,2.5989,2.5989,0,2.604,2.6034,2.6046,2.605,2.6061,2.6031,2.6031,2.6043,2.6061,2.6059,2.6068,2.6087,2.6099,2.6084,2.6094,2.611,2.6096,2.6114,2.6112,2.6112,2.6016,2.6006,2.6125,2.6125,2.6124,2.6124,2.6124,2.6124,2.6101,2.6134,2.6121,2.6154,2.6147,2.6167,2.617,2.6172,2.617,2.6193,2.6204,2.6193,2.6186,2.6196,2.6207,2.6202,2.6207,2.623,2.6221,2.6131,2.6118,2.6105,2.6096,2.6232,2.6232,2.6315,2.6316,2.6316]},{"header":{"parameterUnit":"m.s-1","parameterCategory":1,"la1":30.2991,"la2":30.254,"lo1":-89.0895,"lo2":-89.0444,"dy":0.0017,"dx":0.0017,"nx":28,"ny":28,"refTime":"2025-07-29T03:00:00:Z","depth":0,"parameterNumber":3,"parameterNumberName":"V-component_of_WINDS"},"data":[0,0,0,0,0,0,0,0,0,0,0,0,0,0,0,0,0,0,0,0,0,0,0,0,0,0,0,0,0,0,0,0,0,0,0,0,0,0,0,0,0,0,0,0,0,0,0,0,0,0,0,0,0,0,0,0,0,0,-2.7661,-2.7662,0,-2.7705,-2.7705,-2.7706,-2.7678,-2.7677,-2.7676,-2.7675,-2.7718,-2.772,-2.7722,0,0,0,0,0,0,0,0,0,0,0,0,0,-2.7554,-2.7556,-2.7661,-2.7662,-2.7662,-2.7705,-2.7705,-2.7706,-2.7679,-2.7677,-2.7676,-2.7674,-2.7717,-2.772,-2.7722,0,0,0,0,0,0,0,0,0,0,0,0,0,-2.7599,-2.7556,-2.7661,-2.7654,-2.7654,-2.7704,-2.7705,-2.7706,-2.7679,-2.7677,-2.7675,-2.7673,-2.7716,-2.7719,-2.7723,-2.7783,0,0,-2.7733,-2.7735,0,0,0,0,0,0,0,0,-2.7596,-2.7603,-2.7654,-2.7654,-2.7654,-2.7684,-2.7683,-2.7732,-2.768,-2.7669,-2.7675,-2.7672,-2.7708,-2.7712,-2.7724,-2.7785,-2.7786,-2.7734,-2.7736,-2.7737,-2.7738,0,0,0,0,0,0,0,-2.7593,-2.7601,-2.7678,-2.7655,-2.7655,-2.7648,-2.7652,-2.7692,-2.7699,-2.767,-2.7668,-2.7674,-2.7708,-2.7721,-2.7725,-2.7787,-2.7734,-2.7737,-2.7739,-2.774,-2.79,-2.7902,0,0,0,0,0,0,-2.7591,-2.7598,-2.7677,-2.768,-2.762,-2.7652,-2.7656,-2.7677,-2.7698,-2.77,-2.7675,-2.7672,-2.7716,-2.7721,-2.7726,-2.7799,-2.7737,-2.7741,-2.7743,-2.7898,-2.79,-2.7902,0,0,0,0,0,0,-2.7589,-2.7598,-2.7675,-2.7639,-2.7648,-2.7656,-2.7678,-2.7678,-2.7692,-2.7702,-2.7703,-2.7688,-2.7715,-2.7722,-2.7769,-2.78,-2.7742,-2.7745,-2.7895,-2.7898,-2.7901,-2.7943,0,0,0,0,0,0,-2.7586,-2.7598,-2.762,-2.7639,-2.765,-2.7718,-2.768,-2.7681,-2.7698,-2.7695,-2.7714,-2.7716,-2.7714,-2.7764,-2.7773,-2.7804,-2.7748,-2.7892,-2.7896,-2.79,-2.7939,-2.7948,-2.7955,0,0,0,0,0,-2.7582,-2.763,-2.7622,-2.7631,-2.7679,-2.7719,-2.7725,-2.7722,-2.7701,-2.7724,-2.7731,-2.7715,-2.7795,-2.7769,-2.7779,-2.7811,-2.789,-2.7895,-2.79,-2.7936,-2.7946,-2.7954,0,0,0,0,0,0,-2.7614,-2.7632,-2.7623,-2.7679,-2.7698,-2.7715,-2.7744,-2.7733,-2.7758,-2.7754,-2.7748,-2.7753,-2.7803,-2.7812,-2.7783,-2.7871,-2.7839,-2.7846,-2.7863,-2.7873,-2.7881,-2.7878,-2.7751,0,0,0,0,0,-2.7627,-2.7659,-2.7673,-2.7721,-2.7731,-2.7736,-2.7753,-2.775,-2.7769,-2.7776,-2.7787,-2.7806,-2.7835,-2.7854,-2.7882,-2.794,-2.7945,-2.7967,-2.7975,-2.7981,-2.7987,-2.802,-2.803,-2.7918,-2.7918,-2.7918,0,0,-2.7655,-2.7669,-2.769,-2.7728,-2.7742,-2.7775,-2.7743,-2.7779,-2.7803,-2.7782,-2.7828,-2.7836,-2.7857,-2.791,-2.7934,-2.7919,-2.8019,-2.7987,-2.7992,-2.7995,-2.8026,-2.8036,-2.8046,-2.7922,-2.7921,-2.792,0,0,-2.7724,-2.7737,-2.7779,-2.7794,-2.7817,-2.782,-2.783,-2.7849,-2.7854,-2.79,-2.7885,-2.7913,-2.7964,-2.798,-2.7994,-2.807,-2.8057,-2.8079,-2.8119,-2.8151,-2.816,-2.8168,-2.8195,-2.8205,-2.8085,-2.8085,-2.8085,0,-2.7756,-2.7805,-2.7802,-2.7839,-2.7857,-2.784,-2.7882,-2.7897,-2.7927,-2.7939,-2.7921,-2.7985,-2.7998,-2.8056,-2.8074,-2.8086,-2.8098,-2.8077,-2.8159,-2.8167,-2.8174,-2.82,-2.8211,-2.8087,-2.8087,-2.8087,-2.8087,0,-2.7844,-2.7878,-2.7909,-2.794,-2.796,-2.8,-2.8003,-2.8024,-2.8019,-2.8024,-2.8072,-2.8086,-2.8117,-2.813,-2.8125,-2.8187,-2.8177,-2.816,-2.8128,-2.8187,-2.8212,-2.8222,-2.8091,-2.809,-2.809,-2.8089,0,0,-2.7933,-2.7962,-2.7973,-2.7987,-2.8011,-2.8038,-2.8077,-2.8108,-2.8126,-2.8148,-2.8181,-2.8224,-2.8208,-2.8225,-2.8221,-2.8249,-2.8309,-2.8228,-2.8228,-2.8243,-2.838,-2.8394,-2.8405,-2.8301,-2.8302,-2.8304,-2.8378,0,-2.8003,-2.8072,-2.807,-2.8134,-2.8167,-2.8152,-2.8186,-2.8204,-2.821,-2.8238,-2.8244,-2.8276,-2.8252,-2.8262,-2.8289,-2.8296,-2.8337,-2.8291,-2.8331,-2.8333,-2.8327,-2.8418,-2.8432,-2.8502,-2.8388,-2.839,-2.8391,0,-2.8094,-2.812,-2.8187,-2.8207,-2.8221,-2.8252,-2.828,-2.8307,-2.8328,-2.833,-2.835,-2.8342,-2.8381,-2.8349,-2.8404,-2.8373,-2.8389,-2.8396,-2.8398,-2.8402,-2.8366,-2.8425,-2.8524,-2.8535,-2.8406,-2.8404,-2.8403,0,-2.8153,-2.8204,-2.8252,-2.8264,-2.8289,-2.8311,-2.8322,-2.8341,-2.836,-2.8385,-2.8397,-2.8426,-2.8442,-2.8464,-2.8465,-2.8441,-2.8521,-2.8488,-2.8524,-2.8524,-2.8542,-2.8541,-2.8645,-2.8551,-2.8551,-2.8551,-2.8551,0,-2.8232,-2.8274,-2.8279,-2.8308,-2.8355,-2.8353,-2.8399,-2.8408,-2.8425,-2.8456,-2.8444,-2.8473,-2.8471,-2.8501,-2.8501,-2.8547,-2.8554,-2.8557,-2.8557,-2.8559,-2.8558,-2.857,-2.8565,-2.8554,-2.8553,-2.8553,-2.8552,0,-2.8306,-2.8311,-2.8362,-2.8381,-2.8387,-2.8421,-2.8437,-2.8465,-2.847,-2.8509,-2.8518,-2.8526,-2.856,-2.8563,-2.8602,-2.8602,-2.8658,-2.8652,-2.8652,-2.8651,-2.8687,-2.8684,-2.8803,-2.8819,-2.8714,-2.8715,-2.8716,0,-2.8356,-2.8389,-2.8412,-2.8432,-2.8445,-2.8477,-2.8497,-2.8496,-2.8517,-2.8544,-2.8568,-2.8601,-2.8628,-2.8683,-2.8692,-2.8722,-2.8717,-2.8757,-2.8722,-2.8723,-2.8719,-2.8717,-2.8721,-2.8764,-2.8765,-2.8766,-2.8767,0,-2.8445,-2.8446,-2.8476,-2.8506,-2.853,-2.8554,-2.8576,-2.8593,-2.8595,-2.8619,-2.8655,-2.8675,-2.8716,-2.8749,-2.8779,-2.879,-2.8779,-2.8778,-2.8788,-2.879,-2.8789,-2.8791,-2.8671,-2.8775,-2.8774,-2.8774,-2.8773,-2.8773,-2.8509,-2.8538,-2.8559,-2.8592,-2.8609,-2.8631,-2.8658,-2.8667,-2.8697,-2.873,-2.8728,-2.8767,-2.8787,-2.8826,-2.884,-2.887,-2.8857,-2.8871,-2.8875,-2.8879,-2.8883,-2.8784,-2.8876,-2.8875,-2.8875,-2.8875,-2.8875,0,-2.8599,-2.8612,-2.8642,-2.8675,-2.8701,-2.8689,-2.8713,-2.8736,-2.8771,-2.8791,-2.8818,-2.8859,-2.8891,-2.8903,-2.8935,-2.8957,-2.8953,-2.8965,-2.8964,-2.8967,-2.8893,-2.8881,-2.8968,-2.8968,-2.8968,-2.8968,-2.8968,-2.8968,-2.8648,-2.8696,-2.87,-2.8756,-2.8769,-2.8808,-2.8823,-2.8842,-2.8859,-2.8905,-2.8932,-2.894,-2.8958,-2.8991,-2.902,-2.9023,-2.9035,-2.905,-2.9051,-2.8981,-2.8972,-2.8963,-2.8952,-2.9053,-2.9053,-2.9122,-2.9123,-2.9123]}]]